Location: Lombard
(41.8800°N, 88.0080°W)
Time: 19:43:32
(UTC-05:00)

Transit 2A - Pass Details

Date: 09 February 2023
Orbit: 591 x 964 km, 66.7° (Epoch: 29 March)

Event Time Altitude Azimuth Distance (km) Brightness Sun altitude
Rises 02:22:00 0° 309° (NW) 3,593 - -50.1°
Reaches altitude 10° 02:26:12 10° 282° (WNW) 2,684 - -49.4°
Maximum altitude 02:28:39 12° 259° (W) 2,514 - -49.0°
Drops below altitude 10° 02:31:07 10° 236° (SW) 2,696 - -48.6°
Sets 02:35:24 0° 209° (SSW) 3,627 - -47.9°
